Wind_Speed
8 9 10 13 14 16 16 16 16 18 17 16 17 16 16 16 16 16 16 16 15 15 15 15 16 17 17 17 18 18 19 18 18 18 19 21 22 23 25 25 25 26 27 28
8 9 11 11 12 13 14 15 15 17 16 16 16 16 16 16 16 16 15 15 15 15 15 15 16 16 17 17 16 16 17 17 17 18 19 21 22 23 24 25 26 26 26 26
8 9 9 10 11 11 13 14 15 15 15 15 15 15 15 15 15 15 15 15 15 15 16 16 16 16 16 16 16 15 16 16 17 17 19 21 22 22 23 25 25 26 27 27
9 9 9 10 11 11 12 13 14 14 13 14 14 15 16 15 15 14 15 15 16 17 17 17 17 17 17 16 16 16 16 16 17 17 17 19 20 21 22 23 24 25 26 26
9 9 10 10 12 12 12 12 12 13 13 14 14 14 16 15 15 15 14 15 16 17 18 18 18 18 18 18 18 18 17 17 18 17 17 19 20 21 21 22 24 24 25 26
9 9 10 11 11 13 12 12 12 12 12 13 14 14 15 14 13 14 14 15 15 16 16 17 18 18 19 19 19 19 18 19 19 18 18 19 21 22 22 23 24 25 26 27
8 10 10 11 11 12 12 11 11 12 12 13 15 14 15 15 15 15 15 16 17 16 17 18 18 19 19 19 19 19 19 20 20 20 20 20 21 22 23 24 25 25 26 27
9 10 11 12 12 12 12 12 12 13 13 14 16 15 16 16 16 16 16 16 17 18 18 19 19 19 19 20 20 21 21 21 21 21 21 22 22 23 24 25 26 26 26 26
11 13 12 11 12 13 14 14 14 13 12 13 14 15 15 15 16 17 17 17 19 19 19 20 20 20 20 21 22 22 22 22 23 23 23 23 23 24 25 26 26 26 26 27
13 13 13 13 13 14 14 15 15 14 14 13 13 14 16 16 17 17 18 19 20 21 21 20 21 22 22 23 24 24 24 24 25 25 25 25 26 26 27 27 28 28 28 28
13 13 13 13 13 14 14 15 15 15 14 13 13 16 16 16 17 18 18 19 21 21 21 22 23 23 23 24 25 25 26 27 26 26 26 27 28 28 28 28 29 29 29 29
12 12 12 13 12 13 14 14 15 15 15 15 14 17 16 17 17 18 19 19 20 21 22 23 24 24 25 26 26 26 26 26 26 26 27 28 28 28 28 28 29 29 29 30
11 11 11 11 12 12 13 14 14 14 14 15 14 16 16 16 17 18 18 19 20 20 21 23 23 24 24 25 25 25 25 26 27 27 27 27 27 28 28 28 29 29 29 29
11 10 11 12 13 13 13 13 13 13 13 14 15 17 17 17 18 18 18 19 19 20 21 22 23 25 25 25 25 25 26 26 27 27 27 27 28 28 28 28 28 28 29 29
10 10 10 11 12 12 11 12 12 13 13 14 15 16 16 16 17 17 18 19 20 21 22 22 23 24 24 25 25 25 26 26 26 26 26 27 27 28 27 27 27 28 28 28
9 9 9 9 9 10 10 10 12 13 13 14 15 15 15 16 16 18 19 20 20 21 22 23 23 24 24 24 24 24 24 25 25 26 27 27 27 27 27 26 26 26 26 27
8 8 7 8 8 7 8 9 10 11 11 12 13 13 14 15 16 17 19 20 20 21 21 22 22 23 23 23 23 24 24 25 25 25 26 26 25 25 25 24 25 25 25 26
6 6 6 7 7 7 7 8 8 8 9 10 11 12 14 15 16 17 18 19 19 19 20 21 21 21 22 22 22 22 23 24 24 25 25 24 24 23 23 23 23 22 23 23
5 5 5 5 5 6 5 5 6 7 8 8 10 11 13 14 15 16 17 17 18 19 19 20 20 20 20 21 21 21 21 22 22 23 22 22 22 22 22 22 22 21 21 21
3 3 3 3 3 4 4 4 5 6 8 9 11 11 12 14 15 16 16 16 17 18 18 18 19 18 18 18 17 17 18 19 20 20 20 20 20 20 20 20 19 18 18 18
2 2 2 3 3 3 3 4 5 6 8 9 10 12 13 14 14 15 15 16 16 17 17 16 16 16 16 16 16 16 16 16 16 17 17 17 17 17 17 16 15 14 14 14
2 2 2 1 1 2 3 4 4 6 8 9 10 11 12 13 14 14 14 15 15 16 15 15 14 13 13 13 13 14 14 14 14 14 13 12 13 13 12 12 11 11 10 11
3 2 2 1 1 2 3 4 5 6 7 8 10 11 13 13 14 14 13 14 14 14 13 13 11 11 11 10 10 11 11 11 11 10 10 10 10 9 9 8 8 7 7 7
3 3 2 2 2 3 4 5 6 7 8 9 11 12 13 14 14 14 13 14 14 13 12 11 9 9 8 9 9 9 8 8 7 7 7 7 7 6 6 6 5 5 4 4
3 3 3 3 4 4 5 6 7 8 9 10 12 13 13 14 15 14 14 14 14 13 12 10 9 8 8 8 7 7 7 6 6 6 6 5 4 4 4 3 3 2 2 2
3 3 3 4 4 5 5 6 7 8 10 11 12 13 13 14 14 14 14 14 14 13 12 10 9 8 8 7 6 6 6 6 5 5 4 4 4 4 3 2 2 2 2 1
Wind_Direction
202 195 197 203 199 204 208 210 217 224 228 230 233 241 248 252 257 260 262 265 267 266 268 269 269 266 265 265 265 261 259 258 257 253 251 249 248 249 249 249 249 251 252 253
190 198 201 200 200 203 208 211 219 226 229 232 236 240 247 253 256 258 262 266 266 265 267 269 270 271 268 268 266 261 259 258 259 257 255 252 251 252 253 253 253 253 255 256
185 200 199 199 202 205 211 212 222 230 235 237 240 244 248 252 258 260 265 268 267 266 269 270 271 272 270 267 266 265 263 261 264 263 259 254 252 253 255 256 256 256 257 259
192 195 196 201 207 209 218 218 224 232 235 241 245 249 253 255 258 262 263 265 267 266 268 270 270 271 271 272 271 268 267 267 268 267 264 258 257 259 260 258 259 259 260 261
204 200 201 207 212 213 218 222 226 231 232 241 247 246 254 256 257 259 262 265 267 269 270 271 270 271 272 271 271 271 270 269 270 269 267 264 264 263 262 263 263 264 264 264
212 212 212 214 217 220 222 224 231 235 238 245 247 246 252 254 254 258 263 266 267 269 271 272 271 271 272 270 270 269 269 270 270 269 269 267 267 266 266 266 266 266 266 265
224 226 222 220 223 228 224 223 234 240 240 244 249 247 248 252 254 259 265 267 268 270 270 269 272 273 272 270 271 269 269 268 269 270 270 270 269 268 268 269 268 267 267 267
225 230 228 224 223 227 225 222 227 234 239 246 254 253 254 255 256 260 264 267 269 271 273 272 272 273 271 270 271 271 270 268 268 270 271 272 271 271 270 270 269 269 268 267
220 230 234 231 228 228 230 231 233 239 245 249 255 257 256 254 258 262 265 269 270 271 276 274 271 271 271 272 272 272 270 268 269 269 271 272 273 273 272 271 271 271 271 270
227 234 243 241 237 234 234 237 239 241 246 250 260 262 261 259 261 264 267 270 274 273 276 276 273 275 274 274 272 273 272 270 269 269 270 271 272 272 272 272 271 272 272 273
235 237 245 245 237 236 239 240 241 242 244 249 260 264 265 267 266 267 270 272 275 274 274 275 275 276 276 276 273 272 272 271 270 270 271 272 272 272 271 272 272 272 272 273
237 236 242 245 242 241 239 240 243 247 253 255 260 268 267 268 269 271 272 274 275 275 275 275 276 276 276 276 275 273 272 271 271 270 271 272 273 274 273 273 273 273 273 273
241 241 243 245 245 243 242 241 245 249 254 259 261 267 269 270 272 275 275 277 278 277 277 275 275 276 276 274 273 272 272 271 271 271 270 271 273 275 275 275 275 274 273 273
241 240 240 242 244 244 247 246 245 248 253 259 263 267 272 273 275 275 276 280 280 281 282 280 279 278 278 275 274 275 274 274 274 274 273 274 275 276 277 276 276 275 274 275
240 241 242 243 242 243 248 248 250 253 256 262 269 272 274 276 278 277 279 281 280 282 283 284 283 281 279 277 276 276 274 275 274 275 277 278 278 278 278 277 277 276 275 275
240 240 243 248 245 244 248 253 255 257 262 265 270 273 276 278 280 280 282 284 284 284 283 283 281 280 279 277 275 276 277 278 279 280 281 280 279 279 279 278 278 278 277 276
239 238 241 249 247 247 249 254 257 261 265 267 271 276 279 283 285 287 288 288 287 285 284 282 281 280 279 278 277 277 278 280 281 282 281 280 280 279 277 277 277 277 276 276
231 231 234 239 241 248 259 260 259 264 272 280 283 285 287 287 289 291 291 290 289 289 288 285 282 281 279 279 279 279 279 279 280 281 281 280 281 280 279 278 277 278 278 277
220 219 222 226 241 251 261 262 264 272 279 289 288 290 292 291 293 295 295 295 295 294 292 289 285 282 282 282 281 281 282 282 282 282 282 283 283 283 282 280 279 279 279 278
194 203 218 226 241 254 266 276 279 284 288 295 301 301 301 302 302 303 303 302 301 299 296 294 290 288 286 287 288 285 285 285 283 283 284 285 285 285 284 283 281 279 279 277
151 171 201 216 238 267 285 291 297 299 304 306 309 313 315 315 314 313 310 306 305 303 301 299 296 293 291 292 293 289 285 287 288 290 289 286 286 286 284 283 282 280 278 276
154 149 150 171 251 301 306 308 312 318 319 318 322 324 324 323 322 321 318 315 313 312 310 308 305 300 297 296 295 293 294 295 295 295 293 290 289 288 285 284 282 282 279 275
127 119 104 90 33 356 345 344 341 340 339 339 338 336 335 335 334 331 329 328 326 324 319 315 310 307 305 302 303 300 300 301 301 301 298 294 293 292 292 287 282 282 280 277
106 92 78 57 45 30 17 11 7 3 358 353 350 349 348 347 345 343 341 339 338 338 336 330 325 320 316 314 315 315 318 316 315 315 310 308 307 305 303 299 291 287 285 279
100 90 74 66 60 42 30 23 17 11 6 3 1 360 1 1 359 358 354 352 352 350 348 344 337 332 331 333 333 332 331 329 332 334 331 330 333 334 329 333 331 319 301 293
89 89 77 70 58 44 36 26 18 13 12 10 9 10 11 10 10 9 7 6 6 4 2 359 355 352 351 349 349 349 353 354 351 350 351 357 4 360 3 19 39 60 79 64
Height
5822 5825 5828 5830 5832 5835 5837 5840 5842 5842 5845 5847 5849 5850 5851 5852 5853 5853 5853 5853 5852 5852 5851 5850 5850 5850 5849 5848 5847 5846 5845 5845 5845 5845 5845 5845 5845 5846 5847 5848 5849 5849 5851 5852
5822 5824 5826 5827 5829 5832 5835 5838 5839 5840 5842 5844 5846 5847 5848 5849 5849 5849 5849 5849 5848 5848 5847 5847 5846 5846 5845 5844 5843 5842 5841 5841 5841 5840 5840 5841 5841 5842 5843 5843 5844 5845 5846 5846
5822 5824 5824 5826 5828 5831 5833 5836 5837 5838 5840 5842 5843 5845 5845 5846 5846 5846 5846 5845 5845 5844 5844 5843 5843 5842 5841 5840 5839 5839 5838 5838 5838 5837 5836 5836 5837 5837 5838 5838 5839 5840 5840 5840
5820 5821 5823 5825 5827 5829 5832 5833 5835 5836 5838 5840 5842 5843 5843 5842 5843 5843 5842 5842 5841 5840 5840 5839 5839 5838 5837 5836 5836 5835 5835 5834 5834 5833 5832 5832 5832 5832 5833 5833 5834 5834 5834 5835
5819 5820 5822 5824 5826 5827 5830 5831 5833 5834 5836 5838 5838 5841 5840 5839 5839 5839 5839 5838 5837 5837 5836 5835 5835 5834 5833 5832 5832 5831 5831 5830 5830 5829 5828 5827 5827 5828 5828 5828 5829 5829 5829 5829
5818 5819 5820 5822 5823 5825 5827 5829 5831 5832 5834 5836 5836 5837 5837 5835 5836 5836 5835 5834 5834 5833 5832 5831 5830 5829 5829 5828 5827 5827 5826 5826 5826 5825 5824 5824 5823 5823 5823 5823 5823 5823 5823 5823
5817 5818 5819 5820 5822 5823 5825 5828 5831 5831 5832 5833 5832 5833 5834 5832 5832 5832 5831 5831 5830 5829 5827 5826 5826 5825 5824 5823 5823 5822 5821 5821 5821 5820 5820 5819 5818 5818 5817 5817 5817 5817 5816 5816
5816 5818 5817 5818 5820 5821 5823 5826 5829 5830 5831 5830 5828 5829 5830 5828 5828 5828 5827 5826 5825 5824 5823 5822 5821 5820 5819 5819 5818 5817 5816 5816 5815 5815 5814 5813 5813 5812 5812 5811 5811 5810 5810 5810
5814 5815 5815 5815 5817 5819 5820 5822 5824 5825 5826 5826 5826 5825 5825 5824 5824 5824 5823 5822 5821 5820 5819 5817 5816 5815 5814 5813 5812 5811 5811 5810 5809 5808 5808 5807 5807 5806 5805 5805 5804 5804 5803 5803
5810 5811 5812 5813 5814 5815 5817 5818 5819 5821 5822 5823 5823 5822 5821 5820 5820 5819 5818 5817 5816 5815 5814 5812 5811 5810 5809 5808 5806 5805 5804 5803 5803 5802 5801 5801 5800 5799 5798 5798 5797 5796 5796 5795
5806 5808 5809 5810 5810 5812 5814 5815 5815 5817 5818 5819 5820 5820 5816 5815 5815 5815 5814 5812 5811 5809 5808 5807 5806 5804 5802 5801 5800 5799 5797 5796 5795 5794 5794 5793 5792 5791 5790 5790 5789 5788 5787 5787
5803 5805 5805 5806 5807 5808 5809 5810 5812 5813 5814 5814 5815 5816 5811 5810 5810 5809 5808 5807 5805 5804 5802 5801 5799 5798 5796 5794 5793 5792 5790 5789 5788 5787 5786 5785 5784 5783 5782 5781 5781 5780 5779 5778
5800 5801 5802 5803 5806 5805 5805 5806 5807 5808 5809 5809 5810 5811 5807 5806 5805 5804 5803 5801 5800 5798 5796 5794 5793 5791 5789 5788 5786 5785 5783 5782 5781 5779 5778 5777 5776 5775 5774 5773 5773 5772 5771 5770
5797 5798 5800 5801 5801 5801 5802 5803 5803 5804 5805 5805 5805 5804 5802 5801 5800 5799 5798 5796 5795 5792 5790 5788 5786 5784 5782 5780 5779 5778 5776 5775 5773 5772 5771 5770 5769 5768 5767 5765 5764 5764 5763 5762
5794 5795 5795 5796 5797 5798 5798 5799 5799 5800 5800 5801 5800 5799 5797 5796 5795 5794 5793 5791 5789 5787 5785 5782 5780 5778 5775 5774 5772 5770 5769 5768 5766 5765 5763 5762 5761 5760 5759 5758 5757 5756 5755 5754
5791 5792 5793 5794 5794 5794 5795 5795 5796 5796 5796 5796 5795 5794 5793 5791 5790 5788 5787 5785 5783 5781 5778 5776 5773 5771 5769 5767 5765 5763 5762 5761 5759 5758 5756 5755 5754 5753 5751 5750 5750 5749 5748 5747
5788 5789 5790 5791 5792 5792 5793 5793 5792 5792 5792 5792 5791 5791 5788 5787 5785 5783 5781 5779 5777 5774 5771 5769 5767 5764 5762 5760 5758 5757 5755 5754 5752 5751 5749 5748 5747 5745 5745 5743 5743 5742 5741 5740
5786 5787 5788 5789 5790 5790 5792 5790 5790 5790 5789 5788 5787 5786 5784 5783 5781 5778 5776 5773 5771 5768 5765 5763 5760 5758 5756 5754 5752 5750 5748 5747 5745 5744 5742 5741 5740 5739 5738 5737 5736 5735 5734 5733
5785 5786 5787 5788 5788 5788 5789 5788 5787 5787 5786 5785 5784 5782 5780 5778 5776 5773 5771 5768 5765 5762 5760 5757 5754 5752 5750 5747 5745 5743 5742 5740 5739 5738 5736 5735 5733 5732 5731 5730 5729 5729 5728 5727
5784 5785 5786 5787 5787 5787 5788 5786 5785 5786 5784 5783 5781 5779 5777 5775 5773 5770 5766 5763 5760 5757 5754 5751 5749 5747 5744 5742 5740 5738 5736 5735 5733 5732 5730 5729 5728 5726 5725 5724 5723 5723 5722 5721
5784 5785 5785 5786 5786 5786 5786 5785 5785 5785 5783 5780 5778 5776 5773 5771 5768 5765 5761 5758 5755 5752 5749 5746 5744 5742 5739 5737 5735 5733 5731 5730 5728 5727 5725 5724 5723 5721 5720 5719 5718 5718 5717 5717
5784 5784 5785 5785 5785 5787 5784 5783 5783 5782 5779 5778 5775 5773 5770 5767 5764 5760 5757 5754 5751 5748 5745 5742 5739 5737 5735 5733 5731 5729 5728 5726 5724 5723 5721 5720 5719 5717 5716 5715 5715 5714 5713 5713
5784 5785 5785 5785 5786 5784 5783 5782 5781 5779 5778 5776 5773 5770 5767 5764 5761 5757 5754 5750 5747 5744 5741 5738 5736 5734 5731 5730 5728 5726 5725 5723 5721 5720 5718 5717 5715 5714 5713 5712 5711 5711 5710 5710
5784 5784 5784 5784 5783 5783 5782 5781 5779 5778 5776 5774 5771 5768 5765 5762 5758 5755 5751 5747 5744 5741 5738 5735 5733 5731 5729 5727 5725 5724 5722 5720 5719 5717 5716 5715 5713 5712 5711 5710 5710 5709 5709 5708
5784 5784 5784 5783 5783 5782 5781 5780 5779 5777 5775 5773 5770 5767 5764 5760 5757 5753 5749 5746 5742 5739 5736 5733 5731 5729 5727 5726 5724 5722 5720 5719 5717 5716 5714 5713 5712 5711 5710 5709 5709 5708 5708 5708
5783 5784 5784 5783 5783 5782 5781 5780 5778 5776 5774 5772 5769 5766 5763 5759 5756 5752 5749 5745 5741 5738 5735 5732 5730 5728 5726 5724 5723 5721 5719 5718 5717 5715 5714 5713 5712 5711 5710 5709 5709 5709 5708 5708